Kendall, FL

5:40 AM EST on January 19, 2018 (GMT -0500)
Kendall-Tamiami Executive

Weather History for KTMB - March, 2012

Change the Weather History Date:

Friday, March 16, 2012

  Actual Average Record
Temperature  
Mean Temperature 72 °F -  
Max Temperature 81 °F 80 °F 91 °F (2008)
Min Temperature 64 °F 61 °F 43 °F (1993)
Cooling Degree Days 7    
Growing Degree Days 22 (Base 50)    
Moisture  
Dew Point 64 °F    
Average Humidity 77    
Maximum Humidity 97    
Minimum Humidity 58    
Precipitation  
Precipitation 0.00 in - - ()
Sea Level Pressure  
Sea Level Pressure 30.17 in    
Wind  
Wind Speed 9 mph (East)    
Max Wind Speed 17 mph    
Max Gust Speed 23 mph    
Visibility 10 miles    
Events Rain    
Averages and records for this station are not official NWS values.
T = Trace of Precipitation, MM = Missing Value Source: NWS Daily Summary

Daily Weather History Graph

Daily Weather History Graph

Search for Another Location

Airport or City:

Trip Planner

Search our weather history database for the weather conditions in past years. The results will help you decide how hot, cold, wet, or windy it might be!

Date:

Astronomy

Mar. 16, 2012 Rise Set
Actual Time 7:29 AM EDT 7:31 PM EDT
Civil Twilight 7:06 AM EDT 7:54 PM EDT
Nautical Twilight 6:39 AM EDT 8:20 PM EDT
Astronomical Twilight 6:13 AM EDT 8:47 PM EDT
Moon 3:15 AM EDT (3/16) 2:19 PM EDT (3/16)
Length of Visible Light 12h 47m
Length of Day
12h 01m
Waning Crescent, 33% of the Moon is Illuminated
Mar 16
Waning Crescent
Mar 22
New
Mar 30
First Quarter
Apr 6
Full
Apr 13
Last Quarter

Hourly Weather History & Observations

Time (EDT) Temp. Heat Index Dew Point Humidity Pressure Visibility Wind Dir Wind Speed Gust Speed Precip Events Conditions
12:53 AM 70.0 °F - 66.0 °F 87% 30.17 in 10.0 mi East 8.1 mph - N/A   Clear
1:53 AM 70.0 °F - 66.0 °F 87% 30.16 in 10.0 mi East 9.2 mph - N/A   Clear
2:53 AM 68.0 °F - 64.9 °F 90% 30.14 in 10.0 mi East 6.9 mph - N/A   Clear
3:53 AM 64.9 °F - 64.0 °F 97% 30.12 in 10.0 mi East 5.8 mph - N/A   Clear
4:53 AM 66.0 °F - 64.0 °F 93% 30.12 in 10.0 mi East 5.8 mph - N/A   Clear
5:53 AM 68.0 °F - 64.9 °F 90% 30.13 in 10.0 mi East 8.1 mph - N/A   Scattered Clouds
6:53 AM 66.0 °F - 64.0 °F 93% 30.16 in 10.0 mi East 5.8 mph - N/A   Clear
7:53 AM 66.0 °F - 64.0 °F 93% 30.17 in 10.0 mi ENE 4.6 mph - N/A   Clear
8:53 AM 72.0 °F - 66.0 °F 81% 30.19 in 10.0 mi East 10.4 mph - N/A   Clear
9:53 AM 75.9 °F - 66.0 °F 71% 30.20 in 10.0 mi East 13.8 mph - N/A   Partly Cloudy
10:19 AM 75.2 °F - 64.4 °F 69% 30.20 in 10.0 mi ESE 11.5 mph - N/A   Mostly Cloudy
10:43 AM 77.0 °F - 64.4 °F 65% 30.21 in 10.0 mi ESE 11.5 mph - N/A   Mostly Cloudy
10:53 AM 78.1 °F - 64.9 °F 64% 30.21 in 10.0 mi ESE 12.7 mph - N/A   Mostly Cloudy
11:53 AM 80.1 °F 82.1 °F 66.0 °F 62% 30.21 in 10.0 mi East 15.0 mph - N/A   Scattered Clouds
12:53 PM 80.6 °F 82.3 °F 64.4 °F 58% 30.19 in 10.0 mi ESE 11.5 mph - N/A   Mostly Cloudy
1:53 PM 79.0 °F - 66.0 °F 64% 30.17 in 10.0 mi ESE 16.1 mph 23.0 mph N/A   Mostly Cloudy
2:22 PM 73.4 °F - 66.2 °F 78% 30.16 in 8.0 mi East 16.1 mph - N/A Rain Light Rain
2:30 PM 73.4 °F - 66.2 °F 78% 30.17 in 10.0 mi East 17.3 mph - N/A Rain Light Rain
2:53 PM 73.9 °F - 66.0 °F 76% 30.16 in 10.0 mi East 16.1 mph - N/A Rain Light Rain
3:53 PM 75.0 °F - 64.0 °F 69% 30.14 in 10.0 mi East 11.5 mph - 0.00 in Rain Light Rain
4:53 PM 75.9 °F - 63.0 °F 64% 30.13 in 10.0 mi East 11.5 mph - 0.00 in   Scattered Clouds
5:53 PM 75.9 °F - 61.0 °F 60% 30.13 in 10.0 mi East 11.5 mph - N/A   Clear
6:53 PM 73.0 °F - 62.1 °F 68% 30.14 in 10.0 mi East 11.5 mph - N/A   Clear
7:53 PM 72.0 °F - 63.0 °F 73% 30.15 in 10.0 mi East 9.2 mph - N/A   Clear
8:53 PM 71.1 °F - 63.0 °F 75% 30.17 in 10.0 mi ENE 4.6 mph - N/A   Clear
9:53 PM 68.0 °F - 62.1 °F 81% 30.18 in 10.0 mi ENE 3.5 mph - N/A   Clear
10:53 PM 66.9 °F - 62.1 °F 84% 30.19 in 10.0 mi NE 3.5 mph - N/A   Clear
11:53 PM 66.9 °F - 63.0 °F 87% 30.19 in 10.0 mi NE 4.6 mph - N/A   Clear